[[{"header":{"parameterUnit":"m.s-1","parameterCategory":1,"la1":30.2991,"la2":30.254,"lo1":-89.0895,"lo2":-89.0444,"dy":0.0017,"dx":0.0017,"nx":28,"ny":28,"refTime":"2024-06-07T21:00:00:Z","depth":0,"parameterNumber":2,"parameterNumberName":"U-component_of_WINDS"},"data":[0,0,0,0,0,0,0,0,0,0,0,0,0,0,0,0,0,0,0,0,0,0,0,0,0,0,0,0,0,0,0,0,0,0,0,0,0,0,0,0,0,0,0,0,0,0,0,0,0,0,0,0,0,0,0,0,0,0,-3.0525,-3.0525,0,-3.0593,-3.0593,-3.0594,-3.049,-3.0486,-3.0482,-3.0479,-3.0552,-3.0557,-3.0562,0,0,0,0,0,0,0,0,0,0,0,0,0,-3.0306,-3.0311,-3.0525,-3.0525,-3.0526,-3.0593,-3.0594,-3.0594,-3.049,-3.0486,-3.0481,-3.0477,-3.055,-3.0557,-3.0563,0,0,0,0,0,0,0,0,0,0,0,0,0,-3.0391,-3.0312,-3.0524,-3.0482,-3.0479,-3.0592,-3.0594,-3.0595,-3.0491,-3.0486,-3.048,-3.0475,-3.0548,-3.0556,-3.0564,-3.0723,0,0,-3.0588,-3.0592,0,0,0,0,0,0,0,0,-3.0386,-3.0399,-3.0488,-3.0485,-3.0482,-3.0527,-3.0543,-3.0638,-3.0492,-3.0487,-3.0479,-3.0472,-3.0548,-3.0556,-3.0581,-3.0726,-3.0729,-3.0589,-3.0594,-3.0597,-3.06,0,0,0,0,0,0,0,-3.038,-3.0395,-3.0552,-3.0489,-3.0486,-3.046,-3.0466,-3.0561,-3.0548,-3.0487,-3.0479,-3.0489,-3.0546,-3.0573,-3.0582,-3.073,-3.0589,-3.0596,-3.0601,-3.0604,-3.101,-3.1015,0,0,0,0,0,0,-3.0379,-3.0391,-3.0549,-3.0554,-3.0419,-3.0469,-3.0475,-3.0518,-3.0546,-3.0545,-3.0493,-3.0483,-3.0562,-3.0573,-3.0584,-3.0772,-3.0597,-3.0605,-3.0609,-3.1004,-3.1011,-3.1017,0,0,0,0,0,0,-3.0375,-3.0394,-3.0547,-3.047,-3.0488,-3.0478,-3.0527,-3.0522,-3.055,-3.0551,-3.0548,-3.0524,-3.0558,-3.0573,-3.0689,-3.0774,-3.0608,-3.0616,-3.0997,-3.1006,-3.1014,-3.1151,0,0,0,0,0,0,-3.0369,-3.0393,-3.0453,-3.0472,-3.0492,-3.065,-3.0532,-3.0528,-3.0564,-3.0551,-3.0579,-3.0578,-3.0555,-3.0677,-3.0697,-3.0782,-3.0622,-3.0989,-3.1001,-3.1011,-3.1139,-3.1163,-3.1184,0,0,0,0,0,-3.0362,-3.049,-3.0457,-3.0477,-3.0567,-3.0655,-3.0667,-3.0637,-3.0571,-3.0631,-3.0632,-3.0577,-3.0761,-3.069,-3.0711,-3.08,-3.0984,-3.0997,-3.101,-3.1129,-3.1158,-3.1184,0,0,0,0,0,0,-3.0483,-3.0492,-3.0455,-3.0593,-3.0624,-3.0637,-3.0713,-3.0669,-3.0721,-3.0707,-3.0669,-3.0676,-3.0801,-3.0811,-3.0733,-3.0955,-3.0861,-3.0879,-3.0944,-3.0972,-3.0995,-3.0991,-3.0629,0,0,0,0,0,-3.0525,-3.0595,-3.0599,-3.0721,-3.0738,-3.0723,-3.0761,-3.0734,-3.0765,-3.0778,-3.0787,-3.082,-3.0885,-3.0929,-3.0988,-3.1139,-3.1144,-3.121,-3.1233,-3.1251,-3.1268,-3.1349,-3.1379,-3.1061,-3.1061,-3.1061,0,0,-3.0614,-3.0628,-3.0675,-3.0746,-3.0767,-3.0841,-3.0735,-3.0818,-3.0874,-3.0791,-3.0902,-3.0909,-3.0943,-3.1077,-3.1137,-3.109,-3.1357,-3.1268,-3.1283,-3.129,-3.1366,-3.1396,-3.1423,-3.107,-3.1069,-3.1067,0,0,-3.0815,-3.0832,-3.0935,-3.0958,-3.099,-3.0979,-3.1004,-3.1023,-3.1025,-3.1134,-3.1074,-3.1139,-3.1252,-3.1278,-3.1307,-3.1516,-3.1468,-3.1536,-3.1657,-3.1736,-3.1761,-3.1783,-3.1859,-3.1886,-3.1553,-3.1553,-3.1553,0,-3.0923,-3.1031,-3.0994,-3.1081,-3.1115,-3.1041,-3.1146,-3.117,-3.1221,-3.1246,-3.1192,-3.1331,-3.1349,-3.1489,-3.154,-3.1565,-3.1593,-3.1534,-3.176,-3.1782,-3.1802,-3.1874,-3.1902,-3.1561,-3.156,-3.156,-3.1559,0,-3.1162,-3.1239,-3.1318,-3.1368,-3.1409,-3.1505,-3.1483,-3.153,-3.15,-3.1494,-3.1607,-3.1625,-3.1687,-3.1718,-3.169,-3.1854,-3.1824,-3.1766,-3.1671,-3.1841,-3.1908,-3.1935,-3.1573,-3.157,-3.1568,-3.1566,0,0,-3.1444,-3.147,-3.15,-3.1522,-3.1551,-3.161,-3.1702,-3.1761,-3.1803,-3.184,-3.1917,-3.2013,-3.1959,-3.1991,-3.1965,-3.2034,-3.22,-3.1967,-3.1968,-3.2012,-3.2383,-3.2428,-3.2461,-3.2167,-3.2172,-3.2176,-3.2381,0,-3.1645,-3.1804,-3.1772,-3.1927,-3.1998,-3.1928,-3.2009,-3.2036,-3.2033,-3.2093,-3.2089,-3.2159,-3.2081,-3.2101,-3.2166,-3.2166,-3.2275,-3.2151,-3.2241,-3.2244,-3.2236,-3.2496,-3.2544,-3.2736,-3.2407,-3.2411,-3.2414,0,-3.1902,-3.1947,-3.211,-3.2127,-3.2155,-3.2228,-3.228,-3.2337,-3.2367,-3.2359,-3.2395,-3.2355,-3.2447,-3.235,-3.2477,-3.2394,-3.2428,-3.2434,-3.244,-3.2449,-3.2341,-3.2514,-3.2796,-3.2826,-3.2455,-3.2452,-3.2449,0,-3.2093,-3.2194,-3.2304,-3.2325,-3.2348,-3.24,-3.2413,-3.2436,-3.2474,-3.2519,-3.2543,-3.2599,-3.263,-3.2675,-3.2651,-3.2582,-3.2783,-3.2683,-3.2781,-3.2782,-3.2829,-3.2827,-3.3124,-3.2848,-3.2848,-3.2847,-3.2846,0,-3.2322,-3.2425,-3.2391,-3.2459,-3.2572,-3.2534,-3.2647,-3.265,-3.2672,-3.274,-3.2683,-3.2748,-3.2712,-3.2775,-3.2757,-3.2866,-3.288,-3.2878,-3.2873,-3.2885,-3.2885,-3.2909,-3.2895,-3.2855,-3.2853,-3.2851,-3.285,0,-3.2556,-3.2537,-3.2653,-3.2664,-3.2669,-3.2752,-3.2762,-3.2826,-3.2817,-3.2905,-3.2923,-3.2911,-3.2982,-3.2962,-3.3039,-3.3027,-3.3165,-3.3141,-3.3155,-3.315,-3.325,-3.3242,-3.3574,-3.3616,-3.3312,-3.3314,-3.3317,0,-3.2705,-3.2782,-3.2801,-3.2842,-3.2858,-3.2925,-3.2962,-3.2927,-3.2969,-3.3007,-3.3067,-3.3132,-3.3183,-3.33,-3.3299,-3.3357,-3.3336,-3.3448,-3.3345,-3.3355,-3.334,-3.3337,-3.3345,-3.347,-3.3473,-3.3476,-3.3479,0,-3.2972,-3.2958,-3.3014,-3.3067,-3.3113,-3.3153,-3.3188,-3.3225,-3.3192,-3.3242,-3.3313,-3.3353,-3.343,-3.3497,-3.355,-3.3563,-3.3517,-3.3511,-3.3537,-3.3551,-3.3557,-3.3557,-3.3214,-3.3504,-3.3501,-3.35,-3.3498,-3.3497,-3.3169,-3.3234,-3.3257,-3.3322,-3.3343,-3.3377,-3.3438,-3.3436,-3.3494,-3.3555,-3.353,-3.3612,-3.3639,-3.3705,-3.3725,-3.3789,-3.3747,-3.3784,-3.3794,-3.3805,-3.3818,-3.3544,-3.3799,-3.3798,-3.3797,-3.3797,-3.3796,0,-3.3434,-3.3445,-3.3504,-3.3554,-3.3605,-3.3553,-3.3589,-3.3635,-3.3708,-3.3736,-3.3786,-3.3868,-3.3932,-3.3935,-3.3994,-3.4045,-3.4025,-3.4062,-3.4059,-3.4063,-3.3852,-3.3824,-3.4077,-3.4077,-3.4077,-3.4077,-3.4077,-3.4077,-3.3578,-3.3686,-3.3675,-3.3793,-3.3803,-3.3882,-3.3907,-3.3938,-3.396,-3.4054,-3.4106,-3.4106,-3.4125,-3.4185,-3.4241,-3.424,-3.4266,-3.4311,-3.4303,-3.4106,-3.4078,-3.4052,-3.4025,-3.4317,-3.4317,-3.4509,-3.4511,-3.4512]},{"header":{"parameterUnit":"m.s-1","parameterCategory":1,"la1":30.2991,"la2":30.254,"lo1":-89.0895,"lo2":-89.0444,"dy":0.0017,"dx":0.0017,"nx":28,"ny":28,"refTime":"2024-06-07T21:00:00:Z","depth":0,"parameterNumber":3,"parameterNumberName":"V-component_of_WINDS"},"data":[0,0,0,0,0,0,0,0,0,0,0,0,0,0,0,0,0,0,0,0,0,0,0,0,0,0,0,0,0,0,0,0,0,0,0,0,0,0,0,0,0,0,0,0,0,0,0,0,0,0,0,0,0,0,0,0,0,0,-2.3753,-2.3753,0,-2.3753,-2.3753,-2.3753,-2.3737,-2.3736,-2.3736,-2.3735,-2.3734,-2.3734,-2.3734,0,0,0,0,0,0,0,0,0,0,0,0,0,-2.3739,-2.3739,-2.3753,-2.3753,-2.3753,-2.3753,-2.3753,-2.3753,-2.3737,-2.3736,-2.3736,-2.3735,-2.3734,-2.3734,-2.3734,0,0,0,0,0,0,0,0,0,0,0,0,0,-2.3743,-2.374,-2.3753,-2.3745,-2.3745,-2.3753,-2.3753,-2.3753,-2.3737,-2.3736,-2.3736,-2.3735,-2.3733,-2.3734,-2.3734,-2.375,0,0,-2.3736,-2.3736,0,0,0,0,0,0,0,0,-2.3742,-2.3743,-2.3747,-2.3746,-2.3745,-2.3744,-2.3747,-2.3752,-2.3737,-2.374,-2.3735,-2.3735,-2.3738,-2.3738,-2.3739,-2.375,-2.375,-2.3736,-2.3736,-2.3737,-2.3737,0,0,0,0,0,0,0,-2.3742,-2.3743,-2.3753,-2.3747,-2.3746,-2.3741,-2.3741,-2.3748,-2.3742,-2.3739,-2.3738,-2.3738,-2.3737,-2.3739,-2.3739,-2.375,-2.3736,-2.3737,-2.3737,-2.3737,-2.3772,-2.3773,0,0,0,0,0,0,-2.3743,-2.3743,-2.3753,-2.3753,-2.3742,-2.3742,-2.3742,-2.3745,-2.3742,-2.3741,-2.3739,-2.3738,-2.3738,-2.3738,-2.3739,-2.3755,-2.3737,-2.3737,-2.3737,-2.3771,-2.3772,-2.3773,0,0,0,0,0,0,-2.3743,-2.3744,-2.3753,-2.3748,-2.3749,-2.3743,-2.3747,-2.3745,-2.3747,-2.3742,-2.374,-2.3742,-2.3737,-2.3738,-2.3747,-2.3755,-2.3737,-2.3738,-2.3771,-2.3772,-2.3772,-2.379,0,0,0,0,0,0,-2.3743,-2.3744,-2.3751,-2.3748,-2.3749,-2.3762,-2.3747,-2.3746,-2.3748,-2.3746,-2.3744,-2.3743,-2.3737,-2.3746,-2.3748,-2.3756,-2.3738,-2.377,-2.3771,-2.3772,-2.3789,-2.3791,-2.3794,0,0,0,0,0,-2.3742,-2.3756,-2.3751,-2.3752,-2.3757,-2.3763,-2.3763,-2.3757,-2.3749,-2.3754,-2.3751,-2.3743,-2.3754,-2.3747,-2.3749,-2.3757,-2.3769,-2.3771,-2.3772,-2.3787,-2.3791,-2.3794,0,0,0,0,0,0,-2.376,-2.3755,-2.375,-2.3763,-2.3764,-2.376,-2.3767,-2.3761,-2.3763,-2.3761,-2.3752,-2.3752,-2.3762,-2.3761,-2.3753,-2.3771,-2.376,-2.3762,-2.3772,-2.3775,-2.3777,-2.3777,-2.3739,0,0,0,0,0,-2.3765,-2.3771,-2.3766,-2.3779,-2.3779,-2.3773,-2.3776,-2.377,-2.377,-2.377,-2.3767,-2.3767,-2.377,-2.3772,-2.3775,-2.3789,-2.3787,-2.3795,-2.3797,-2.3799,-2.3801,-2.3806,-2.3809,-2.3777,-2.3777,-2.3777,0,0,-2.3776,-2.3774,-2.3779,-2.3782,-2.3781,-2.3787,-2.3773,-2.378,-2.3783,-2.3771,-2.3779,-2.3777,-2.3776,-2.3786,-2.3791,-2.3786,-2.3809,-2.3801,-2.3803,-2.3803,-2.3808,-2.3811,-2.3813,-2.3778,-2.3778,-2.3778,0,0,-2.3799,-2.3799,-2.3808,-2.3808,-2.3807,-2.3803,-2.3805,-2.3803,-2.3801,-2.3809,-2.3799,-2.3803,-2.3809,-2.3808,-2.3809,-2.383,-2.3822,-2.3831,-2.3844,-2.385,-2.3852,-2.3854,-2.386,-2.3863,-2.3833,-2.3833,-2.3833,0,-2.3812,-2.382,-2.3814,-2.382,-2.3821,-2.381,-2.3819,-2.3819,-2.3819,-2.382,-2.3814,-2.3821,-2.382,-2.3829,-2.3834,-2.3836,-2.3837,-2.3831,-2.3852,-2.3854,-2.3856,-2.3862,-2.3865,-2.3834,-2.3834,-2.3834,-2.3834,0,-2.3837,-2.3842,-2.385,-2.385,-2.3852,-2.386,-2.3853,-2.3856,-2.3851,-2.3847,-2.3855,-2.3853,-2.3854,-2.3856,-2.3851,-2.3865,-2.3861,-2.3854,-2.3843,-2.386,-2.3866,-2.3868,-2.3835,-2.3835,-2.3835,-2.3834,0,0,-2.387,-2.3866,-2.3869,-2.3868,-2.3866,-2.387,-2.3877,-2.3878,-2.388,-2.3881,-2.3885,-2.3891,-2.3884,-2.3884,-2.3879,-2.3883,-2.3899,-2.3875,-2.3875,-2.3879,-2.3912,-2.3916,-2.3919,-2.3894,-2.3894,-2.3894,-2.3911,0,-2.3891,-2.3902,-2.3896,-2.3908,-2.3912,-2.3901,-2.3907,-2.3906,-2.3903,-2.3905,-2.3901,-2.3905,-2.3896,-2.3896,-2.39,-2.3896,-2.3905,-2.3895,-2.3897,-2.3897,-2.3896,-2.3922,-2.3927,-2.3943,-2.3914,-2.3914,-2.3914,0,-2.3916,-2.3918,-2.393,-2.3926,-2.3928,-2.3933,-2.3933,-2.3936,-2.3934,-2.3931,-2.3932,-2.3925,-2.393,-2.392,-2.3926,-2.3919,-2.392,-2.3918,-2.3918,-2.3917,-2.3906,-2.3921,-2.3949,-2.395,-2.3918,-2.3917,-2.3917,0,-2.3938,-2.3943,-2.395,-2.395,-2.3946,-2.395,-2.3948,-2.3946,-2.3947,-2.3947,-2.3947,-2.3948,-2.3949,-2.3949,-2.3942,-2.3936,-2.3949,-2.3939,-2.3946,-2.3946,-2.3949,-2.3948,-2.3976,-2.3951,-2.3951,-2.3951,-2.3951,0,-2.3961,-2.3968,-2.3959,-2.3964,-2.3972,-2.3964,-2.3972,-2.3969,-2.3967,-2.397,-2.3961,-2.3965,-2.3956,-2.3958,-2.3953,-2.3958,-2.3959,-2.3956,-2.3954,-2.3956,-2.3956,-2.3955,-2.3953,-2.3952,-2.3951,-2.3951,-2.3951,0,-2.3986,-2.398,-2.3987,-2.3983,-2.3982,-2.3988,-2.3983,-2.3987,-2.3983,-2.3987,-2.3987,-2.3981,-2.3983,-2.3976,-2.3977,-2.3973,-2.3981,-2.3978,-2.3981,-2.398,-2.3987,-2.3986,-2.4014,-2.4017,-2.3992,-2.3992,-2.3992,0,-2.4,-2.4006,-2.4001,-2.4003,-2.4002,-2.4005,-2.4005,-2.3998,-2.3999,-2.3997,-2.4,-2.4001,-2.4002,-2.4005,-2.4,-2.4,-2.3996,-2.4006,-2.3996,-2.3997,-2.3995,-2.3994,-2.3994,-2.4008,-2.4008,-2.4008,-2.4008,0,-2.4026,-2.4023,-2.4024,-2.4025,-2.4026,-2.4026,-2.4025,-2.4027,-2.4018,-2.402,-2.4022,-2.4022,-2.4022,-2.4023,-2.4022,-2.402,-2.4012,-2.4012,-2.4013,-2.4014,-2.4016,-2.4014,-2.3986,-2.4011,-2.4011,-2.401,-2.401,-2.401,-2.4045,-2.4049,-2.4046,-2.4048,-2.4047,-2.4046,-2.4049,-2.4045,-2.4046,-2.4046,-2.4041,-2.4043,-2.404,-2.4038,-2.4037,-2.4038,-2.4033,-2.4036,-2.4036,-2.4036,-2.4037,-2.4016,-2.4038,-2.4038,-2.4038,-2.4038,-2.4037,0,-2.4069,-2.4067,-2.4069,-2.4067,-2.4069,-2.4062,-2.4061,-2.4062,-2.4064,-2.4062,-2.4062,-2.4063,-2.4064,-2.4059,-2.4058,-2.406,-2.4056,-2.406,-2.4059,-2.4059,-2.4042,-2.404,-2.4063,-2.4063,-2.4063,-2.4063,-2.4063,-2.4063,-2.4082,-2.4087,-2.4084,-2.4088,-2.4086,-2.4088,-2.4087,-2.4086,-2.4085,-2.4086,-2.4087,-2.4083,-2.408,-2.4079,-2.4078,-2.4077,-2.4076,-2.4081,-2.4078,-2.4062,-2.406,-2.4058,-2.4056,-2.4081,-2.4081,-2.4094,-2.4094,-2.4095]}]]